Weather History for Kaltag, AK

Change the Weather History Date:

Monday, December 3, 2012

  Actual Average (PAGA) Record (PAGA)
Temperature  
Mean Temperature -24 °F -  
Max Temperature -20 °F -1 °F 28 °F (2002)
Min Temperature -29 °F -12 °F -50 °F (1951)
Degree Days  
Heating Degree Days 90    
Moisture  
Dew Point -32 °F    
Average Humidity 71    
Maximum Humidity 78    
Minimum Humidity 66    
Precipitation  
Precipitation 0.00 in - - ()
Sea Level Pressure  
Sea Level Pressure 30.29 in    
Wind  
Wind Speed 2 mph (SW)    
Max Wind Speed 5 mph    
Max Gust Speed -    
Visibility 10 miles    
Events      
Averages and records for this station are not official NWS values.
T = Trace of Precipitation, MM = Missing Value Source: NWS Daily Summary

Daily Weather History Graph

Daily Weather History Graph

Search for Another Location

Airport:

Trip Planner

Search our weather history database for the weather conditions in past years. The results will help you decide how hot, cold, wet, or windy it might be!

Date:

Astronomy

Dec. 03, 2012 Rise Set
Actual Time 11:03 AM AKST 3:46 PM AKST
Civil Twilight 9:49 AM AKST 5:00 PM AKST
Nautical Twilight 8:42 AM AKST 6:07 PM AKST
Astronomical Twilight 7:43 AM AKST 7:06 PM AKST
Moon 10:05 PM AKST (12/3) 1:19 PM AKST (12/3)
Length of Visible Light 7h 10m
Length of Day
4h 43m
Waning Gibbous, 77% of the Moon is Illuminated
Dec 3
Waning Gibbous
Dec 6
Last Quarter
Dec 12
New
Dec 19
First Quarter
Dec 28
Full

Hourly Weather History & Observations

Time (AKST) Temp. Windchill Dew Point Humidity Pressure Visibility Wind Dir Wind Speed Gust Speed Precip Events Conditions
12:53 AM -24.0 °F -35.2 °F -29.9 °F 74% 30.25 in 10.0 mi WSW 3.5 mph - N/A   Clear
1:53 AM -27.0 °F -38.7 °F -33.0 °F 73% 30.26 in 10.0 mi SW 3.5 mph - N/A   Clear
3:53 AM -27.9 °F - -34.1 °F 73% 30.27 in 10.0 mi Calm Calm - N/A   Clear
4:53 AM -24.0 °F - -32.1 °F 66% 30.28 in 10.0 mi Calm Calm - N/A   Clear
5:53 AM -26.0 °F -37.5 °F -33.0 °F 69% 30.28 in 10.0 mi SW 3.5 mph - N/A   Clear
6:53 AM -24.0 °F -35.2 °F -31.0 °F 70% 30.29 in 10.0 mi SW 3.5 mph - N/A   Clear
7:53 AM -23.1 °F -34.2 °F -31.0 °F 67% 30.29 in 10.0 mi SW 3.5 mph - N/A   Clear
8:53 AM -27.0 °F - -34.1 °F 69% 30.30 in 10.0 mi Calm Calm - N/A   Clear
9:53 AM -27.0 °F -38.7 °F -34.1 °F 69% 30.30 in 10.0 mi SW 3.5 mph - N/A   Clear
10:53 AM -25.1 °F - -29.9 °F 78% 30.30 in 10.0 mi Calm Calm - N/A   Clear
11:53 AM -24.0 °F -35.2 °F -32.1 °F 66% 30.30 in 10.0 mi SW 3.5 mph - N/A   Clear
12:53 PM -23.1 °F -34.2 °F -29.0 °F 74% 30.31 in 10.0 mi SW 3.5 mph - N/A   Clear
1:53 PM -20.9 °F -31.7 °F -27.9 °F 70% 30.30 in 10.0 mi WSW 3.5 mph - N/A   Clear
2:53 PM -22.0 °F - -29.0 °F 70% 30.30 in 10.0 mi Calm Calm - N/A   Clear
3:24 PM -23.8 °F - -29.2 °F 76% 30.27 in 2.0 mi Calm Calm - N/A   Haze
3:32 PM -25.6 °F - -32.8 °F 69% 30.27 in 9.0 mi Calm Calm - N/A   Clear
3:53 PM -24.0 °F - -29.9 °F 74% 30.30 in 10.0 mi Calm Calm - N/A   Clear
4:53 PM -27.0 °F - -34.1 °F 69% 30.31 in 10.0 mi Calm Calm - N/A   Clear
5:53 PM -27.0 °F -41.5 °F -34.1 °F 69% 30.30 in 10.0 mi SW 4.6 mph - N/A   Clear
6:53 PM -25.1 °F - -31.0 °F 74% 30.29 in 10.0 mi Calm Calm - N/A   Clear
7:53 PM -29.0 °F -41.0 °F -36.0 °F 69% 30.28 in 10.0 mi SW 3.5 mph - N/A   Clear
8:53 PM -29.0 °F -41.0 °F -36.0 °F 69% 30.28 in 10.0 mi SW 3.5 mph - N/A   Clear
9:53 PM -29.9 °F -42.0 °F - N/A% 30.27 in 10.0 mi SW 3.5 mph - N/A   Clear
10:54 PM -29.0 °F -43.8 °F -35.0 °F 73% 30.27 in 10.0 mi SW 4.6 mph - N/A   Unknown
11:53 PM -27.9 °F - -34.1 °F 73% 30.27 in 10.0 mi Calm Calm - N/A   Clear